TimeAKDT,TemperatureF,Dew PointF,Humidity,Sea Level PressureIn,VisibilityMPH,Wind Direction,Wind SpeedMPH,Gust SpeedMPH,PrecipitationIn,Events,Conditions,WindDirDegrees,DateUTC
12:53 AM,39.9,35.1,83,30.37,10.0,SSW,5.8,18.4,0.00,Rain,Light Rain,200,2013-05-19 08:53:00
1:53 AM,39.9,33.1,77,30.37,10.0,Calm,Calm,-,0.00,,Overcast,0,2013-05-19 09:53:00
2:53 AM,39.9,34.0,79,30.40,10.0,SSE,4.6,-,N/A,,Overcast,160,2013-05-19 10:53:00
3:53 AM,39.9,35.1,83,30.41,10.0,South,4.6,-,0.00,Rain,Light Rain,170,2013-05-19 11:53:00
4:53 AM,39.9,33.1,77,30.42,10.0,Variable,3.5,-,0.00,,Overcast,0,2013-05-19 12:53:00
5:21 AM,39.2,35.6,87,30.43,6.0,Calm,Calm,-,0.01,Rain,Light Rain,0,2013-05-19 13:21:00
5:44 AM,37.4,35.6,93,30.44,2.5,Calm,Calm,-,0.04,Rain,Light Rain,0,2013-05-19 13:44:00
5:53 AM,37.9,35.1,89,30.45,7.0,Calm,Calm,-,0.05,Rain,Light Rain,0,2013-05-19 13:53:00
6:28 AM,37.4,35.6,93,30.44,10.0,Calm,Calm,-,0.00,Rain,Light Rain,0,2013-05-19 14:28:00
6:53 AM,39.9,36.0,86,30.45,10.0,Calm,Calm,-,0.00,,Overcast,0,2013-05-19 14:53:00
7:38 AM,41.0,37.4,87,30.46,10.0,Calm,Calm,-,N/A,,Overcast,0,2013-05-19 15:38:00
7:53 AM,41.0,36.0,82,30.47,10.0,Calm,Calm,-,N/A,,Overcast,0,2013-05-19 15:53:00
8:14 AM,37.4,33.8,87,30.48,2.5,Calm,Calm,-,0.02,Rain,Rain,0,2013-05-19 16:14:00
8:24 AM,37.4,33.8,87,30.48,7.0,Calm,Calm,-,0.03,Rain,Light Rain,0,2013-05-19 16:24:00
8:48 AM,39.2,33.8,81,30.49,10.0,Calm,Calm,-,0.03,,Overcast,0,2013-05-19 16:48:00
8:53 AM,39.9,34.0,79,30.49,10.0,Calm,Calm,-,0.03,,Overcast,0,2013-05-19 16:53:00
9:53 AM,42.1,37.9,85,30.49,9.0,NNE,5.8,-,0.00,Rain,Light Rain,20,2013-05-19 17:53:00
10:18 AM,41.0,37.4,87,30.49,10.0,NNW,4.6,-,0.00,,Overcast,340,2013-05-19 18:18:00
10:41 AM,42.8,37.4,81,30.50,10.0,Calm,Calm,-,0.00,Rain,Light Rain,0,2013-05-19 18:41:00
10:53 AM,41.0,37.0,86,30.51,9.0,SSW,3.5,-,0.00,Rain,Light Rain,210,2013-05-19 18:53:00
11:01 AM,41.0,35.6,81,30.50,5.0,NNW,4.6,-,0.00,Rain,Light Rain,340,2013-05-19 19:01:00
11:29 AM,41.0,37.4,87,30.52,10.0,SSW,8.1,-,0.01,Rain,Light Rain,210,2013-05-19 19:29:00
11:53 AM,41.0,36.0,82,30.51,10.0,SE,5.8,-,0.01,Rain,Light Rain,140,2013-05-19 19:53:00
12:53 PM,44.1,37.0,76,30.52,10.0,South,4.6,-,0.00,,Overcast,170,2013-05-19 20:53:00
1:53 PM,46.0,32.0,58,30.52,10.0,Variable,4.6,-,N/A,,Overcast,0,2013-05-19 21:53:00
2:53 PM,46.9,33.1,59,30.53,10.0,WSW,5.8,-,N/A,,Overcast,250,2013-05-19 22:53:00
3:53 PM,41.0,35.1,79,30.54,6.0,West,11.5,-,0.01,Rain,Light Rain,280,2013-05-19 23:53:00
4:00 PM,39.2,35.6,87,30.54,2.5,WNW,8.1,-,0.01,Rain,Rain,290,2013-05-20 00:00:00
4:09 PM,39.2,35.6,87,30.54,4.0,WNW,4.6,-,0.02,Rain,Light Rain,300,2013-05-20 00:09:00
4:21 PM,41.0,37.4,87,30.54,5.0,Calm,Calm,-,0.03,Rain,Light Rain,0,2013-05-20 00:21:00
4:29 PM,41.0,37.4,87,30.53,8.0,Calm,Calm,-,0.04,Rain,Light Rain,0,2013-05-20 00:29:00
4:39 PM,39.2,37.4,93,30.53,10.0,Calm,Calm,-,0.04,Rain,Light Rain,0,2013-05-20 00:39:00
4:53 PM,42.1,35.1,76,30.53,9.0,SSE,3.5,-,0.04,Rain,Light Rain,160,2013-05-20 00:53:00
5:53 PM,43.0,35.1,74,30.51,10.0,Calm,Calm,-,0.00,,Overcast,0,2013-05-20 01:53:00
6:53 PM,42.1,35.1,76,30.51,10.0,SSW,4.6,-,N/A,,Overcast,200,2013-05-20 02:53:00
7:53 PM,43.0,34.0,71,30.50,10.0,Calm,Calm,-,N/A,,Overcast,0,2013-05-20 03:53:00
8:53 PM,41.0,34.0,76,30.50,10.0,Calm,Calm,-,N/A,,Overcast,0,2013-05-20 04:53:00
9:53 PM,39.9,34.0,79,30.50,10.0,Calm,Calm,-,N/A,,Overcast,0,2013-05-20 05:53:00
10:53 PM,39.9,34.0,79,30.50,10.0,Calm,Calm,-,N/A,,Overcast,0,2013-05-20 06:53:00
11:53 PM,39.0,36.0,89,30.50,10.0,Calm,Calm,-,N/A,,Overcast,0,2013-05-20 07:53:00